Date String (YYYY-MM-DD hh:mm:ss) UTC,Instrument flags,absolute air pressure of the measurement (hPa),sample flow rate (lpm),inlet stack bypass flow (lpm),air temperature of the measurement (°C),ambient temperature measured by the external sensor (°C),aerosol sample conditioner tube jacket temperature (°C),OPC LED temperature (°C),internal box temperature (°C),relative humidity of the measurement (%),span deviation,mass concentration of particles derived from Lorenz-Mie calculation of OPC scattering (μg/m³),mass concentration of particles derived from Lorenz-Mie calculation of OPC scattering (μg/m³),mass concentration of particles derived from Lorenz-Mie calculation of OPC scattering (μg/m³)
DateTimeUTC,F1_M11,P_M11,Q1_M11,Q2_M11,T1_M11,T2_M11,T3_M11,T4_M11,T5_M11,U1_M11,ZSPAN_M11,X0_M11,X2_M11,X1_M11
2024-04-20 19:00:00,SystemResetWarning,0835.0,5.00,000.00,020.7,020.0,000.0,029.2,022.4,021.2,0000.0,0007.38,0005.22,0005.09
2024-04-20 19:01:00,SystemResetWarning,0835.0,4.99,000.00,020.7,020.0,000.0,029.2,022.4,021.3,0000.0,0007.23,0005.08,0004.95
2024-04-20 19:02:00,SystemResetWarning,0835.0,5.01,000.00,020.6,019.9,000.0,029.2,022.4,021.4,0000.0,0007.08,0004.96,0004.83
2024-04-20 19:03:00,SystemResetWarning,0834.9,5.00,000.00,020.6,019.9,000.0,029.2,022.4,021.3,0000.0,0006.84,0004.80,0004.68
2024-04-20 19:04:00,SystemResetWarning,0835.0,5.00,000.00,020.6,019.9,000.0,029.2,022.4,021.3,0000.0,0006.59,0004.67,0004.55
2024-04-20 19:05:00,SystemResetWarning,0834.9,5.00,000.00,020.6,019.9,000.0,029.2,022.4,021.2,0000.0,0005.96,0004.59,0004.49
2024-04-20 19:06:00,SystemResetWarning,0834.9,5.00,000.00,020.6,019.9,000.0,029.2,022.4,021.2,0000.0,0005.92,0004.58,0004.48
2024-04-20 19:07:00,SystemResetWarning,0835.2,5.00,000.00,020.6,019.9,000.0,029.2,022.4,021.2,0000.0,0005.96,0004.59,0004.48
2024-04-20 19:08:00,SystemResetWarning,0835.3,5.00,000.00,020.6,019.9,000.0,029.2,022.4,021.1,0000.0,0006.03,0004.62,0004.51
2024-04-20 19:09:00,SystemResetWarning,0834.9,5.00,000.00,020.6,019.9,000.0,029.2,022.4,021.1,0000.0,0006.00,0004.61,0004.50
2024-04-20 19:10:00,SystemResetWarning,0834.9,5.00,000.00,020.6,019.9,000.0,029.2,022.4,021.1,0000.0,0005.95,0004.60,0004.49
2024-04-20 19:11:00,SystemResetWarning,0834.9,5.01,000.00,020.6,019.9,000.0,029.2,022.4,021.1,0000.0,0005.95,0004.60,0004.49
2024-04-20 19:12:00,SystemResetWarning,0835.0,5.01,000.00,020.6,019.9,000.0,029.2,022.3,021.1,0000.0,0005.95,0004.60,0004.49
2024-04-20 19:13:00,SystemResetWarning,0835.0,5.00,000.00,020.6,019.9,000.0,029.1,022.3,021.1,0000.0,0005.97,0004.60,0004.49
2024-04-20 19:14:00,SystemResetWarning,0835.0,5.00,000.00,020.6,019.9,000.0,029.1,022.3,021.0,0000.0,0005.98,0004.61,0004.49
2024-04-20 19:15:00,SystemResetWarning,0835.0,4.99,000.00,020.6,019.9,000.0,029.1,022.3,021.0,0000.0,0005.98,0004.62,0004.51
2024-04-20 19:16:00,SystemResetWarning,0835.0,4.99,000.00,020.5,019.8,000.0,029.1,022.3,021.0,0000.0,0006.22,0004.65,0004.54
2024-04-20 19:17:00,SystemResetWarning,0834.9,5.00,000.00,020.5,019.8,000.0,029.1,022.3,021.0,0000.0,0006.28,0004.67,0004.55
2024-04-20 19:18:00,SystemResetWarning,0835.4,5.01,000.00,020.5,019.8,000.0,029.1,022.3,021.0,0000.0,0006.32,0004.67,0004.55
2024-04-20 19:19:00,SystemResetWarning,0834.7,5.01,000.00,020.5,019.8,000.0,029.1,022.3,021.0,0000.0,0006.27,0004.65,0004.53
2024-04-20 19:20:00,SystemResetWarning,0834.7,4.99,000.00,020.5,019.8,000.0,029.1,022.3,021.0,0000.0,0006.21,0004.65,0004.55
2024-04-20 19:21:00,SystemResetWarning,0834.7,5.00,000.00,020.5,019.8,000.0,029.1,022.3,021.1,0000.0,0006.19,0004.67,0004.58
2024-04-20 19:22:00,SystemResetWarning,0834.7,5.00,000.00,020.5,019.8,000.0,029.1,022.3,021.1,0000.0,0006.28,0004.70,0004.61
2024-04-20 19:23:00,SystemResetWarning,0834.8,5.00,000.00,020.5,019.8,000.0,029.1,022.3,021.2,0000.0,0006.37,0004.74,0004.63
2024-04-20 19:24:00,SystemResetWarning,0835.0,5.00,000.00,020.5,019.8,000.0,029.1,022.3,021.3,0000.0,0006.40,0004.76,0004.65
2024-04-20 19:25:00,SystemResetWarning,0835.2,5.00,000.00,020.5,019.8,000.0,029.1,022.3,021.3,0000.0,0006.42,0004.79,0004.68
2024-04-20 19:26:00,SystemResetWarning,0834.7,5.01,000.00,020.5,019.8,000.0,029.1,022.3,021.4,0000.0,0006.52,0004.83,0004.72
2024-04-20 19:27:00,SystemResetWarning,0834.7,5.00,000.00,020.5,019.7,000.0,029.1,022.3,021.4,0000.0,0006.41,0004.84,0004.74
2024-04-20 19:28:00,SystemResetWarning,0834.9,5.00,000.00,020.5,019.7,000.0,029.1,022.2,021.4,0000.0,0006.24,0004.82,0004.74
2024-04-20 19:29:00,SystemResetWarning,0835.3,5.00,000.00,020.5,019.7,000.0,029.1,022.2,021.3,0000.0,0006.13,0004.80,0004.72
2024-04-20 19:30:00,SystemResetWarning,0834.9,5.00,000.00,020.5,019.7,000.0,029.1,022.2,021.2,0000.0,0006.11,0004.80,0004.72
2024-04-20 19:31:00,SystemResetWarning,0835.0,5.00,000.00,020.4,019.7,000.0,029.1,022.2,021.2,0000.0,0006.10,0004.78,0004.70
2024-04-20 19:32:00,SystemResetWarning,0835.0,5.00,000.00,020.4,019.7,000.0,029.1,022.2,021.2,0000.0,0006.07,0004.76,0004.68
2024-04-20 19:33:00,SystemResetWarning,0835.0,5.01,000.00,020.4,019.7,000.0,029.0,022.2,021.2,0000.0,0006.03,0004.75,0004.67
2024-04-20 19:34:00,SystemResetWarning,0835.0,5.01,000.00,020.4,019.7,000.0,029.0,022.2,021.2,0000.0,0005.95,0004.73,0004.67
2024-04-20 19:35:00,SystemResetWarning,0835.0,5.01,000.00,020.4,019.7,000.0,029.0,022.2,021.2,0000.0,0005.90,0004.71,0004.66
2024-04-20 19:36:00,SystemResetWarning,0835.0,5.00,000.00,020.4,019.7,000.0,029.0,022.2,021.2,0000.0,0005.87,0004.68,0004.62
2024-04-20 19:37:00,SystemResetWarning,0834.9,5.01,000.00,020.4,019.7,000.0,029.0,022.2,021.2,0000.0,0005.82,0004.66,0004.60
2024-04-20 19:38:00,SystemResetWarning,0835.0,4.99,000.00,020.4,019.7,000.0,029.0,022.2,021.2,0000.0,0005.80,0004.65,0004.59
2024-04-20 19:39:00,SystemResetWarning,0834.9,4.99,000.00,020.4,019.7,000.0,029.0,022.2,021.3,0000.0,0005.83,0004.67,0004.60
2024-04-20 19:40:00,SystemResetWarning,0834.9,4.99,000.00,020.4,019.7,000.0,029.0,022.2,021.3,0000.0,0005.88,0004.69,0004.62
2024-04-20 19:41:00,SystemResetWarning,0834.9,5.00,000.00,020.4,019.7,000.0,029.0,022.2,021.3,0000.0,0005.89,0004.71,0004.64
2024-04-20 19:42:00,SystemResetWarning,0835.0,5.00,000.00,020.4,019.7,000.0,029.0,022.2,021.3,0000.0,0005.90,0004.73,0004.66
2024-04-20 19:43:00,SystemResetWarning,0834.9,5.01,000.00,020.4,019.7,000.0,029.0,022.2,021.3,0000.0,0005.95,0004.75,0004.67
2024-04-20 19:44:00,SystemResetWarning,0835.0,5.01,000.00,020.4,019.7,000.0,029.0,022.2,021.3,0000.0,0005.98,0004.76,0004.68
2024-04-20 19:45:00,SystemResetWarning,0835.1,5.00,000.00,020.4,019.7,000.0,029.0,022.2,021.3,0000.0,0005.99,0004.77,0004.69
2024-04-20 19:46:00,SystemResetWarning,0835.2,5.00,000.00,020.4,019.7,000.0,029.0,022.2,021.4,0000.0,0006.05,0004.78,0004.70
2024-04-20 19:47:00,SystemResetWarning,0835.2,4.99,000.00,020.4,019.7,000.0,029.0,022.2,021.3,0000.0,0006.02,0004.79,0004.71
2024-04-20 19:48:00,SystemResetWarning,0835.2,5.00,000.00,020.4,019.7,000.0,029.0,022.2,021.3,0000.0,0006.07,0004.78,0004.69
2024-04-20 19:49:00,SystemResetWarning,0835.1,4.99,000.00,020.4,019.7,000.0,029.0,022.2,021.4,0000.0,0006.26,0004.80,0004.68
2024-04-20 19:50:00,SystemResetWarning,0835.2,5.00,000.00,020.4,019.7,000.0,029.0,022.2,021.3,0000.0,0006.34,0004.80,0004.66
2024-04-20 19:51:00,SystemResetWarning,0835.1,5.01,000.00,020.4,019.7,000.0,029.0,022.2,021.3,0000.0,0006.31,0004.78,0004.65
2024-04-20 19:52:00,SystemResetWarning,0835.1,5.00,000.00,020.3,019.7,000.0,029.0,022.2,021.3,0000.0,0006.30,0004.76,0004.63
2024-04-20 19:53:00,SystemResetWarning,0835.1,5.01,000.00,020.3,019.7,000.0,028.9,022.2,021.3,0000.0,0006.32,0004.75,0004.62
2024-04-20 19:54:00,SystemResetWarning,0835.1,5.00,000.00,020.3,019.7,000.0,028.9,022.2,021.3,0000.0,0006.34,0004.75,0004.62
2024-04-20 19:55:00,SystemResetWarning,0835.1,5.00,000.00,020.3,019.7,000.0,028.9,022.1,021.3,0000.0,0006.29,0004.74,0004.61
2024-04-20 19:56:00,SystemResetWarning,0835.1,5.00,000.00,020.3,019.6,000.0,028.9,022.2,021.3,0000.0,0006.24,0004.72,0004.59
2024-04-20 19:57:00,SystemResetWarning,0835.2,5.00,000.00,020.3,019.6,000.0,028.9,022.1,021.3,0000.0,0006.14,0004.68,0004.56
2024-04-20 19:58:00,SystemResetWarning,0835.2,5.00,000.00,020.3,019.6,000.0,028.9,022.1,021.3,0000.0,0006.17,0004.68,0004.55
2024-04-20 19:59:00,SystemResetWarning,0835.3,5.01,000.00,020.3,019.6,000.0,028.9,022.1,021.3,0000.0,0006.11,0004.66,0004.55
